Flight Track Log - Related Links

Times and Time Zones

All times are in EDT time to prevent confusion due to time zone crossing. See the FFT837 flight status page for this flight to view local times or setup timezone preferences in your user account.

Time Position Orientation Groundspeed Altitude Reporting Facility
EDT Latitude Longitude Course Direction KTS MPH feet Rate Location/Type
Tue 06:57:26 PM 38.8833 -77.0500 314° West 172 198 1,600  Level Potomac TRACON
Tue 06:58:27 PM 38.9333 -77.1167 314° West 243 280 2,400 1,537 Climbing Potomac TRACON
Tue 06:59:27 PM 38.9833 -77.1833 314° West 298 343 4,700 2,350 Climbing Potomac TRACON
Tue 07:00:27 PM 39.0167 -77.2833 293° West 320 368 7,100 2,842 Climbing Potomac TRACON
Tue 07:01:21 PM 39.0500 -77.3833 293° West 314 361 10,100 2,947 Climbing Potomac TRACON
Tue 07:02:21 PM 39.0667 -77.4833 282° West 294 338 12,700 2,150 Climbing Potomac TRACON
Tue 07:03:21 PM 39.0500 -77.6000 260° West 309 356 14,400 1,290 Climbing Potomac TRACON
Tue 07:04:08 PM 39.0325 -77.6947 257° West 336 387 15,000 833 Climbing Washington Center
Tue 07:05:09 PM 39.0158 -77.8169 260° West 387 445 15,900 984 Climbing Washington Center
Tue 07:06:10 PM 38.9964 -77.9633 260° West 425 489 17,000 555 Climbing Washington Center
Tue 07:07:08 PM 38.9744 -78.1203 260° West 456 525 17,000  Level Washington Center
Tue 07:08:08 PM 38.9686 -78.2961 268° West 467 537 17,000 98 Level Washington Center
Tue 07:09:10 PM 38.9669 -78.4483 269° West 484 557 17,200 1,574 Climbing Washington Center
Tue 07:10:10 PM 38.9736 -78.6089 273° West 473 544 20,200 2,492 Climbing Washington Center
Tue 07:11:08 PM 38.9781 -78.7611 272° West 454 522 22,100 1,714 Climbing Washington Center
Tue 07:12:09 PM 38.9822 -78.9136 272° West 442 509 23,600 1,339 Climbing Washington Center
Tue 07:13:09 PM 38.9861 -79.0714 272° West 442 509 24,800 1,190 Climbing Washington Center
Tue 07:14:10 PM 38.9917 -79.2372 273° West 449 517 26,000 1,100 Climbing Washington Center
Tue 07:15:09 PM 38.9928 -79.4003 271° West 461 531 27,000 504 Climbing Washington Center
Tue 07:16:09 PM 39.0081 -79.5747 276° West 468 539 27,000 756 Level Washington Center
Tue 07:17:08 PM 39.0247 -79.7600 277° West 500 575 28,500 1,088 Climbing Washington Center
Tue 07:19:33 PM 39.0558 -80.1644 276° West 500 575 30,700 899 Climbing Indianapolis Center
Tue 07:20:35 PM 39.0711 -80.3389 276° West 494 568 31,600 629 Climbing Indianapolis Center
Tue 07:21:37 PM 39.0847 -80.5164 276° West 498 573 32,000 194 Climbing Indianapolis Center
Tue 07:22:39 PM 39.0992 -80.6947 276° West 503 579 32,000  Level Indianapolis Center
Tue 07:23:41 PM 39.1161 -80.9086 276° West 503 579 32,000 -48 Level Indianapolis Center
Tue 07:24:43 PM 39.1292 -81.0831 276° West 495 570 31,900 -48 Descending Indianapolis Center
Tue 07:25:45 PM 39.1503 -81.2583 279° West 497 572 31,900 48 Level Indianapolis Center
Tue 07:26:48 PM 39.1708 -81.4317 279° West 495 570 32,000 49 Climbing Indianapolis Center
Tue 07:27:48 PM 39.1922 -81.6053 279° West 495 570 32,000  Level Indianapolis Center
Tue 07:28:50 PM 39.2158 -81.8131 278° West 493 567 32,000  Level Indianapolis Center
Tue 07:29:52 PM 39.2361 -81.9869 279° West 493 567 32,000  Level Indianapolis Center
Tue 07:30:55 PM 39.2558 -82.1611 278° West 493 567 32,000  Level Indianapolis Center
Tue 07:31:56 PM 39.2758 -82.3350 279° West 491 565 32,000  Level Indianapolis Center
Tue 07:32:58 PM 39.2972 -82.5297 278° West 492 566 32,000 -48 Level Indianapolis Center
Tue 07:34:00 PM 39.3161 -82.7050 278° West 489 563 31,900 -49 Descending Indianapolis Center
Tue 07:35:01 PM 39.3358 -82.8803 278° West 487 560 31,900 49 Level Indianapolis Center
Tue 07:36:03 PM 39.3539 -83.0578 278° West 491 565 32,000 48 Climbing Indianapolis Center
Tue 07:37:05 PM 39.3719 -83.2347 278° West 491 565 32,000 -48 Level Indianapolis Center
Tue 07:38:07 PM 39.3906 -83.4103 278° West 487 560 31,900 -49 Descending Indianapolis Center
Tue 07:39:08 PM 39.4089 -83.5844 278° West 483 556 31,900  Level Indianapolis Center
Tue 07:40:10 PM 39.4256 -83.7589 277° West 482 555 31,900  Level Indianapolis Center
Tue 07:41:12 PM 39.4506 -83.9322 281° West 483 556 31,900 49 Level Indianapolis Center
Tue 07:42:13 PM 39.4786 -84.1058 282° West 487 560 32,000 49 Climbing Indianapolis Center
Tue 07:43:15 PM 39.5067 -84.2792 282° West 486 559 32,000  Level Indianapolis Center
Tue 07:44:17 PM 39.5344 -84.4525 282° West 486 559 32,000  Level Indianapolis Center
Tue 07:45:18 PM 39.5656 -84.6550 281° West 487 560 32,000 -49 Level Indianapolis Center
Tue 07:46:20 PM 39.5903 -84.8264 281° West 480 552 31,900  Descending Indianapolis Center
Tue 07:47:22 PM 39.6139 -84.9747 282° West 480 552 32,000 48 Climbing Indianapolis Center
Tue 07:48:24 PM 39.6439 -85.1758 281° West 474 545 32,000  Level Indianapolis Center
Tue 07:49:25 PM 39.6683 -85.3431 281° West 475 547 32,000 49 Level Indianapolis Center
Tue 07:50:27 PM 39.6942 -85.5108 281° West 476 548 32,100 435 Climbing Indianapolis Center
Tue 07:51:29 PM 39.7172 -85.6792 280° West 477 549 32,900 878 Climbing Indianapolis Center
Tue 07:52:30 PM 39.7433 -85.8464 282° West 477 549 33,900 537 Climbing Indianapolis Center
Tue 07:53:32 PM 39.7692 -86.0075 282° West 463 533 34,000 48 Climbing Indianapolis Center
Tue 07:54:34 PM 39.7947 -86.1681 282° West 460 529 34,000  Level Indianapolis Center
Tue 07:55:35 PM 39.8217 -86.3536 281° West 468 539 34,000  Level Indianapolis Center
Tue 07:56:37 PM 39.8483 -86.5228 282° West 471 542 34,000  Level Indianapolis Center
Tue 07:57:39 PM 39.8725 -86.6867 281° West 467 537 34,000  Level Indianapolis Center
Tue 07:58:40 PM 39.8972 -86.8494 281° West 462 532 34,000  Level Indianapolis Center
Tue 07:59:42 PM 39.9258 -87.0458 281° West 462 532 34,000 -48 Level Indianapolis Center
Tue 08:00:44 PM 39.9489 -87.2081 281° West 459 528 33,900  Descending Indianapolis Center
Tue 08:01:45 PM 39.9733 -87.3711 281° West 461 531 34,000 49 Climbing Indianapolis Center
Tue 08:02:47 PM 39.9967 -87.5325 281° West 455 524 34,000 -49 Level Indianapolis Center
Tue 08:03:48 PM 40.0197 -87.6956 281° West 459 528 33,900  Descending Indianapolis Center
Tue 08:04:51 PM 40.0419 -87.8586 280° West 459 528 34,000 77 Climbing Indianapolis Center
Tue 08:05:06 PM 40.0514 -87.9247 281° West 461 531 34,000  Level Chicago Center
Tue 08:06:08 PM 40.0747 -88.0867 281° West 456 525 34,000  Level Chicago Center
Tue 08:07:10 PM 40.0972 -88.2542 280° West 450 518 34,000 -51 Level Chicago Center
Tue 08:08:05 PM 40.1147 -88.3822 280° West 452 520 33,900 -51 Descending Kansas City Center
Tue 08:09:07 PM 40.1350 -88.5450 279° West 452 520 33,900 49 Level Kansas City Center
Tue 08:10:08 PM 40.1614 -88.7419 280° West 456 525 34,000 49 Climbing Kansas City Center
Tue 08:11:10 PM 40.1831 -88.9033 280° West 454 522 34,000 -48 Level Kansas City Center
Tue 08:12:12 PM 40.2033 -89.0661 279° West 452 520 33,900  Descending Kansas City Center
Tue 08:13:13 PM 40.2242 -89.2281 280° West 451 519 34,000 49 Climbing Kansas City Center
Tue 08:14:15 PM 40.2444 -89.3919 279° West 454 522 34,000  Level Kansas City Center
Tue 08:15:17 PM 40.2650 -89.5561 279° West 455 524 34,000  Level Kansas City Center
Tue 08:16:18 PM 40.2856 -89.7214 279° West 455 524 34,000  Level Kansas City Center
Tue 08:17:20 PM 40.3047 -89.8853 279° West 453 521 34,000  Level Kansas City Center
Tue 08:18:22 PM 40.3242 -90.0494 279° West 452 520 34,000  Level Kansas City Center
Tue 08:19:34 PM 40.3489 -90.2436 280° West 452 520 34,000  Level Chicago Center
Tue 08:19:58 PM 40.3558 -90.3086 278° West 452 520 34,000  Level Chicago Center
Tue 08:21:00 PM 40.3797 -90.5014 279° West 447 514 34,000  Level Chicago Center
Tue 08:22:02 PM 40.3972 -90.6564 278° West 441 507 34,000  Level Chicago Center
Tue 08:23:04 PM 40.4153 -90.8250 278° West 442 509 34,000  Level Chicago Center
Tue 08:24:07 PM 40.4331 -90.9828 278° West 438 504 34,000  Level Chicago Center
Tue 08:25:09 PM 40.4497 -91.1400 278° West 435 501 34,000  Level Chicago Center
Tue 08:26:11 PM 40.4686 -91.3161 278° West 440 506 34,000  Level Chicago Center
Tue 08:27:13 PM 40.4867 -91.4719 279° West 439 505 34,000  Level Chicago Center
Tue 08:28:15 PM 40.5019 -91.6281 277° West 435 501 34,000  Level Chicago Center
Tue 08:28:38 PM 40.5075 -91.6903 277° West 436 502 34,000  Level Kansas City Center
Tue 08:29:40 PM 40.5244 -91.8453 278° West 435 501 34,000  Level Kansas City Center
Tue 08:30:41 PM 40.5400 -92.0008 278° West 435 501 34,000  Level Kansas City Center
Tue 08:31:43 PM 40.5600 -92.1858 278° West 433 498 34,000  Level Kansas City Center
Tue 08:32:45 PM 40.5744 -92.3356 277° West 430 495 34,000  Level Kansas City Center
Tue 08:33:46 PM 40.5883 -92.4925 277° West 431 496 34,000  Level Kansas City Center
Tue 08:35:00 PM 40.6075 -92.6764 278° West 431 496 34,000  Level Kansas City Center
Tue 08:36:02 PM 40.6244 -92.8597 277° West 429 494 34,000  Level Kansas City Center
Tue 08:37:04 PM 40.6378 -93.0144 277° West 430 495 34,000  Level Kansas City Center
Tue 08:37:46 PM 40.6483 -93.1064 279° West 429 494 34,000  Level Chicago Center
Tue 08:38:16 PM 40.6558 -93.1986 276° West 428 493 34,000  Level Minneapolis Center
Tue 08:39:18 PM 40.6703 -93.3525 277° West 427 491 34,000  Level Minneapolis Center
Tue 08:40:20 PM 40.6831 -93.5097 276° West 433 498 34,000  Level Minneapolis Center
Tue 08:41:22 PM 40.6967 -93.6672 277° West 437 503 34,000  Level Minneapolis Center
Tue 08:42:24 PM 40.7142 -93.8533 277° West 433 498 34,000  Level Minneapolis Center
Tue 08:43:27 PM 40.7267 -94.0089 276° West 430 495 34,000  Level Minneapolis Center
Tue 08:44:29 PM 40.7386 -94.1644 276° West 429 494 34,000  Level Minneapolis Center
Tue 08:45:30 PM 40.7492 -94.2894 276° West 431 496 34,000  Level Minneapolis Center
Tue 08:46:45 PM 40.7642 -94.4769 276° West 431 496 34,000  Level Minneapolis Center
Tue 08:47:47 PM 40.7831 -94.6925 277° West 429 494 34,000  Level Minneapolis Center
Tue 08:48:49 PM 40.7964 -94.8500 276° West 429 494 34,000  Level Minneapolis Center
Tue 08:49:51 PM 40.8064 -95.0125 275° West 437 503 34,000  Level Minneapolis Center
Tue 08:50:53 PM 40.8178 -95.1739 275° West 441 507 34,000  Level Minneapolis Center
Tue 08:51:56 PM 40.8294 -95.3339 276° West 439 505 34,000  Level Minneapolis Center
Tue 08:52:58 PM 40.8436 -95.5247 276° West 436 502 34,000  Level Minneapolis Center
Tue 08:54:00 PM 40.8533 -95.6833 275° West 433 498 34,000  Level Minneapolis Center
Tue 08:55:02 PM 40.8539 -95.8431 270° West 431 496 34,000  Level Minneapolis Center
Tue 08:56:04 PM 40.8547 -96.0025 270° West 432 497 34,000  Level Minneapolis Center
Tue 08:57:06 PM 40.8558 -96.1625 271° West 432 497 34,000  Level Minneapolis Center
Tue 08:58:08 PM 40.8561 -96.3203 270° West 430 495 34,000  Level Minneapolis Center
Tue 08:59:10 PM 40.8558 -96.4786 270° West 428 493 34,000  Level Minneapolis Center
Tue 09:00:12 PM 40.8564 -96.6350 270° West 427 491 34,000 -48 Level Minneapolis Center
Tue 09:01:16 PM 40.8556 -96.8192 270° West 420 483 33,900 -48 Descending Minneapolis Center
Tue 09:02:18 PM 40.8561 -96.9769 270° West 425 489 33,900 48 Level Minneapolis Center
Tue 09:03:20 PM 40.8550 -97.1322 270° West 423 487 34,000 48 Climbing Minneapolis Center
Tue 09:04:22 PM 40.8547 -97.2892 270° West 425 489 34,000  Level Minneapolis Center
Tue 09:05:25 PM 40.8533 -97.4464 269° West 422 486 34,000  Level Minneapolis Center
Tue 09:06:27 PM 40.8519 -97.6303 269° West 417 480 34,000 484 Level Minneapolis Center
Tue 09:07:29 PM 40.8500 -97.7842 269° West 418 481 35,000 968 Climbing Minneapolis Center
Tue 09:08:31 PM 40.8492 -97.9297 270° West 403 464 36,000 484 Climbing Minneapolis Center
Tue 09:09:33 PM 40.8469 -98.0753 269° West 396 456 36,000  Level Minneapolis Center
Tue 09:10:35 PM 40.8450 -98.2222 269° West 398 458 36,000  Level Minneapolis Center
Tue 09:11:37 PM 40.8433 -98.3686 269° West 397 457 36,000  Level Minneapolis Center
Tue 09:12:39 PM 40.8400 -98.5389 269° West 399 459 36,000  Level Minneapolis Center
Tue 09:13:41 PM 40.8383 -98.6856 269° West 400 460 36,000  Level Minneapolis Center
Tue 09:14:43 PM 40.8356 -98.8347 269° West 404 465 36,000  Level Minneapolis Center
Tue 09:15:45 PM 40.8328 -98.9839 269° West 406 467 36,000  Level Minneapolis Center
Tue 09:16:47 PM 40.8292 -99.1458 268° West 407 468 36,000  Level Minneapolis Center
Tue 09:17:06 PM 40.8281 -99.1761 267° West 407 468 36,000  Level Denver Center
Tue 09:18:08 PM 40.8256 -99.3267 269° West 408 470 36,000  Level Denver Center
Tue 09:19:09 PM 40.8214 -99.5089 268° West 411 473 36,000  Level Denver Center
Tue 09:20:11 PM 40.8167 -99.6617 268° West 415 478 36,000  Level Denver Center
Tue 09:21:12 PM 40.8264 -99.8169 275° West 423 487 36,000  Level Denver Center
Tue 09:22:14 PM 40.8436 -99.9644 279° West 424 488 36,000  Level Denver Center
Tue 09:23:15 PM 40.8631 -100.1403 278° West 432 497 36,000  Level Denver Center
Tue 09:24:17 PM 40.8789 -100.2894 278° West 431 496 36,000  Level Denver Center
Tue 09:25:18 PM 40.8956 -100.4397 278° West 433 498 36,000  Level Denver Center
Tue 09:26:20 PM 40.9147 -100.6142 278° West 434 499 36,000  Level Denver Center
Tue 09:27:21 PM 40.9325 -100.7853 278° West 433 498 36,000  Level Denver Center
Tue 09:28:35 PM 40.9464 -100.9303 277° West 423 487 36,000  Level Denver Center
Tue 09:29:37 PM 40.9675 -101.1267 278° West 424 488 36,000  Level Denver Center
Tue 09:30:38 PM 40.9828 -101.2764 278° West 429 494 36,000  Level Denver Center
Tue 09:31:40 PM 41.0003 -101.4506 278° West 429 494 36,000  Level Denver Center
Tue 09:32:41 PM 41.0150 -101.6003 277° West 429 494 36,000  Level Denver Center
Tue 09:33:43 PM 41.0306 -101.7522 278° West 434 499 36,000  Level Denver Center
Tue 09:34:44 PM 41.0467 -101.9303 277° West 437 503 36,000  Level Denver Center
Tue 09:35:46 PM 41.0606 -102.0836 277° West 439 505 36,000  Level Denver Center
Tue 09:36:47 PM 41.0767 -102.2628 277° West 440 506 36,000  Level Denver Center
Tue 09:37:49 PM 41.0892 -102.4172 276° West 441 507 36,000  Level Denver Center
Tue 09:38:51 PM 41.1056 -102.5953 277° West 438 504 36,000  Level Denver Center
Tue 09:39:52 PM 41.1194 -102.7475 277° West 435 501 36,000  Level Denver Center
Tue 09:40:53 PM 41.1294 -102.8742 276° West 433 498 36,000  Level Denver Center
Tue 09:41:55 PM 41.1464 -103.0778 276° West 435 501 36,000  Level Denver Center
Tue 09:42:57 PM 41.1603 -103.2294 277° West 434 499 36,000  Level Denver Center
Tue 09:43:59 PM 41.1742 -103.4081 276° West 435 501 36,000  Level Denver Center
Tue 09:45:00 PM 41.1856 -103.5597 276° West 432 497 36,000  Level Denver Center
Tue 09:46:02 PM 41.2006 -103.7364 276° West 431 496 36,000  Level Denver Center
Tue 09:47:04 PM 41.2117 -103.8906 276° West 436 502 36,000  Level Denver Center
Tue 09:48:05 PM 41.2236 -104.0447 276° West 438 504 36,000  Level Denver Center
Tue 09:49:07 PM 41.2369 -104.2244 276° West 437 503 36,000  Level Denver Center
Tue 09:50:08 PM 41.2486 -104.3783 276° West 437 503 36,000  Level Denver Center
Tue 09:51:10 PM 41.2611 -104.5542 275° West 431 496 36,000  Level Denver Center
Tue 09:52:12 PM 41.2711 -104.6981 275° West 414 476 36,000  Level Denver Center
Tue 09:53:13 PM 41.2811 -104.8475 275° West 421 484 36,000 -195 Level Denver Center
Tue 09:54:15 PM 41.2614 -105.0214 261° West 435 501 35,600 -397 Descending Denver Center
Tue 09:55:29 PM 41.2008 -105.1756 242° Southwest 425 489 35,100 -489 Descending Denver Center
Tue 09:56:30 PM 41.1103 -105.3061 227° Southwest 433 498 34,500 -537 Descending Denver Center
Tue 09:57:32 PM 41.0239 -105.4008 220° Southwest 424 488 34,000 -244 Descending Denver Center
Tue 09:58:33 PM 40.9394 -105.4889 218° Southwest 394 453 34,000  Level Denver Center
Tue 09:59:35 PM 40.8400 -105.5964 219° Southwest 393 452 34,000 -145 Level Denver Center
Tue 10:00:37 PM 40.7553 -105.6881 219° Southwest 390 449 33,700 -732 Descending Denver Center
Tue 10:01:38 PM 40.6708 -105.7764 218° Southwest 387 445 32,500 -1,317 Descending Denver Center
Tue 10:02:40 PM 40.5956 -105.8800 226° Southwest 389 448 31,000 -1,452 Descending Denver Center
Tue 10:03:42 PM 40.5894 -106.0211 267° West 388 447 29,500 -1,366 Descending Denver Center
Tue 10:04:43 PM 40.6483 -106.1369 304° West 376 433 28,200 -1,131 Descending Denver Center
Tue 10:05:44 PM 40.7194 -106.2342 314° West 373 429 27,200 -1,024 Descending Denver Center
Tue 10:06:46 PM 40.8242 -106.2489 354° North 364 419 26,100 -634 Descending Denver Center
Tue 10:07:47 PM 40.9022 -106.1744 36° Northeast 365 420 25,900 -295 Descending Denver Center
Tue 10:08:48 PM 40.9239 -106.0653 75° East 355 409 25,500 -439 Descending Denver Center
Tue 10:09:50 PM 40.9206 -105.9122 92° East 360 414 25,000 -242 Descending Denver Center
Tue 10:10:52 PM 40.9564 -105.7867 69° East 362 417 25,000 -244 Level Denver Center
Tue 10:11:53 PM 40.9183 -105.6503 110° East 363 418 24,500 -683 Descending Denver Center
Tue 10:12:55 PM 40.8381 -105.5694 143° Southeast 363 418 23,600 -1,073 Descending Denver Center
Tue 10:13:56 PM 40.7514 -105.5097 152° Southeast 352 405 22,300 -1,122 Descending Denver Center
Tue 10:14:58 PM 40.6769 -105.5836 217° Southwest 333 383 21,300 -878 Descending Denver Center
Tue 10:15:59 PM 40.6011 -105.6381 209° Southwest 332 382 20,500 -738 Descending Denver Center
Tue 10:17:00 PM 40.5458 -105.5422 127° Southeast 336 387 19,800 -780 Descending Denver Center
Tue 10:18:02 PM 40.5239 -105.4097 102° East 365 420 18,900 -1,024 Descending Denver Center
Tue 10:19:03 PM 40.5022 -105.2858 103° East 349 402 17,700 -1,122 Descending Denver Center
Tue 10:20:05 PM 40.4625 -105.1706 114° Southeast 345 397 16,600 -1,317 Descending Denver Center
Tue 10:21:06 PM 40.4014 -105.0669 128° Southeast 329 379 15,000 -1,475 Descending Denver Center
Tue 10:22:07 PM 40.3453 -104.9722 128° Southeast 326 375 13,600 -976 Descending Denver Center
Tue 10:23:09 PM 40.2900 -104.8869 130° Southeast 310 357 13,000 -780 Descending Denver Center
Tue 10:24:10 PM 40.2403 -104.8094 130° Southeast 262 302 12,000 -1,171 Descending Denver Center
Tue 10:25:12 PM 40.1853 -104.7564 144° Southeast 250 288 10,600 -1,561 Descending Denver Center
Tue 10:26:13 PM 40.1153 -104.7422 171° South 253 291 8,800 -1,426 Descending Denver Center
Tue 10:27:14 PM 40.0481 -104.7100 160° South 254 292 7,700 -878 Descending Denver Center
Tue 10:28:16 PM 39.9831 -104.6956 170° South 221 254 7,000 -683 Descending Denver Center
Tue 10:29:17 PM 39.9436 -104.6958 180° South 189 217 6,300 -836 Descending Denver Center
Tue 10:30:18 PM 39.8914 -104.6964 180° South 155 178 5,300 -984 Descending Denver Center
Tue 10:32:00 PM 39.8617 -104.6732 175° South  Level Estimated
Tue 10:39:00 PM 39.8617 -104.6732 175° South  Level Estimated
Tue 10:40:00 PM 39.8617 -104.6732 175° South  Level Estimated

Login

Don't have an account? Register now (free) for customized features, flight alerts, and more!